Regional Weather Roundup
Issued by NWS

Home | Current Version | Previous Version | Text Only | Print | Product List | Glossary On
Versions: 1 2 3 4 5 6 7 8 9 10 11 12 13 14 15 16 17 18 19 20 21 22 23 24 25 26 27 28 29 30 31 32 33 34 35 36 37 38 39 40 41 42 43 44 45 46 47 48 49 50
000
ASUS45 KBOU 300010
RWRCO

WEATHER ROUNDUP FOR COLORADO
NATIONAL WEATHER SERVICE DENVER/BOULDER CO
600 PM MDT MON JUN 29 2015

NOTE: "FAIR" INDICATES FEW OR NO CLOUDS BELOW 12000 FEET WITH NO
SIGNIFICANT WEATHER AND/OR OBSTRUCTIONS TO VISIBILITY.

COZ001>005-013-030-031-300100-
...NORTHWEST COLORADO...

CITY           SKY/WX    TMP DP  RH WIND       PRES   REMARKS
CRAIG          SUNNY     93  38  14 N8        30.20S
HAYDEN         SUNNY     88  34  14 N8        30.23S
MEEKER         SUNNY     90  40  17 NE3       30.21F
MOUNT WERNER   NOT AVBL
STEAMBOAT SPGS SUNNY     87  37  17 W5        30.26S
WALDEN         MOSUNNY   77  37  24 N8G16     30.39S
$$

COZ006>008-011-300100-
...WEST CENTRAL VALLEYS...

CITY           SKY/WX    TMP DP  RH WIND       PRES   REMARKS
GRAND JUNCTION MOSUNNY   97  44  16 W12       30.02F
MONTROSE       SUNNY     95  41  15 NW8       30.12F
EAGLE          MOSUNNY   90  36  14 N14       30.22R
RIFLE          SUNNY     95  39  14 N14G21    30.11S
DELTA          SUNNY    100  37  11 CALM      30.06S
NUCLA          SUNNY     93  37  14 NW6       30.17F
$$

COZ017>023-064>068-300100-
...SOUTHWEST COLORADO...

CITY           SKY/WX    TMP DP  RH WIND       PRES   REMARKS
DURANGO        PTSUNNY   83  48  29 W8        30.20F
CORTEZ         SUNNY     90  46  21 W10       30.12F
PAGOSA SPRINGS CLOUDY    73  47  40 CALM      30.34S THUNDER
TELLURIDE      MOSUNNY   77  34  21 CALM      30.45F
WOLF CREEK PAS NOT AVBL
$$

COZ009-010-012-014-032>034-037-058>063-300100-
...CENTRAL COLORADO...

CITY           SKY/WX    TMP DP  RH WIND       PRES   REMARKS
ASPEN          PTSUNNY   82  42  24 W9        30.31S
BUENA VISTA    CLOUDY    72  47  41 SE6       30.40S
COPPER MTN     PTSUNNY   68  32  26 W5        30.72S
BERTHOUD PASS  FAIR      48  37  66 E15G26    30.78S
COTTONWOOD PAS NOT AVBL
GUNNISON       PTSUNNY   82  45  26 E16G23    30.33R
KREMMLING      PTSUNNY   86  28  12 N7        30.32S
LEADVILLE      PTSUNNY   67  41  38 S6        30.51R
SALIDA         CLOUDY    66  57  72 N5        30.43R
SUNLIGHT       MOSUNNY   72  39  30 N3        30.63S
WILKERSON PASS CLOUDY    57  37  47 NE8       30.69F
$$

COZ069>075-300100-
...SAN LUIS VALLEY/SANGRE DE CRISTO MOUNTAINS...

CITY           SKY/WX    TMP DP  RH WIND       PRES   REMARKS
ALAMOSA        PTSUNNY   79  45  29 E6        30.30S
LA VETA PASS   MOSUNNY   63  45  51 MISG      30.56S
SAGUACHE       CLOUDY    70  50  49 NW10      30.36S
$$

COZ035-036-038>040-300100-
...NORTHERN COLORADO FRONT RANGE...

CITY           SKY/WX    TMP DP  RH WIND       PRES   REMARKS
DENVER INTL AP MOSUNNY   86  48  26 NW9       30.20S
DMNS CITY PARK   N/A     86  46  24 N3G9      30.20S
AURORA         MOSUNNY   85  49  28 N7        30.23S
FRONT RANGE AP MOSUNNY   86  48  26 N8        30.22S
ERIE MUNI ARPT MOSUNNY   85  46  25 CALM      30.19S
BOULDER MUN AP MOSUNNY   84  46  26 CALM      30.21S
CENTENNIAL     PTSUNNY   84  45  25 N8        30.24F
BROOMFIELD     MOSUNNY   86  48  26 N7        30.25R
FORT COLLINS   SUNNY     88  55  33 CALM      30.17S
LONGMONT       SUNNY     90  49  24 W3        30.20F
$$

COZ041-046-047-076>085-087-088-300100-
...PIKES PEAK/PALMER DIVIDE AND SOUTHERN FOOTHILLS...

CITY           SKY/WX    TMP DP  RH WIND       PRES   REMARKS
COLO. SPRINGS  PTSUNNY   79  53  40 SE8       30.28S
A. F. ACADEMY  PTSUNNY   79  48  32 NE10G18   30.29S
ELLICOTT       CLOUDY   N/A N/A N/A SE6       30.27R
FALCON         PTSUNNY   80  46  31 NE9       30.34S
FORT CARSON    MOSUNNY   79  54  41 S5        30.25S
LIMON          MOSUNNY   73  57  57 SE9       30.21S
MONUMENT HILL  MOSUNNY   73  46  38 N3        30.35S
TRINIDAD       SUNNY     82  51  34 E8        30.22S
$$

COZ042>045-048>051-090-091-300100-
...NORTHEAST COLORADO...

CITY           SKY/WX    TMP DP  RH WIND       PRES   REMARKS
GREELEY ARPT   SUNNY     88  46  23 N8        30.16S
AKRON          PTSUNNY   86  51  29 NW5       30.16S
BURLINGTON     MOSUNNY   82  54  37 SE13      30.13R
WRAY           SUNNY     92  47  21 CALM      30.08S
STERLING       LGT RAIN  84  57  39 W13       30.10S
HOLYOKE        SUNNY     95  52  23 N8        30.09R
FORT MORGAN    PTSUNNY   85 -22   1 NE12      30.15S
$$

COZ086-089-092>099-300100-
...SOUTHEAST COLORADO...

CITY           SKY/WX    TMP DP  RH WIND       PRES   REMARKS
PUEBLO         SUNNY     89  49  25 S9        30.15R
LA JUNTA       PTSUNNY   83  55  38 NE8       30.12S
LAMAR          SUNNY     90  49  24 E3        30.08S
SPRINGFIELD      N/A     85  44  23 CALM      30.14S
$$


USA.gov is the U.S. government's official web portal to all federal, state and local government web resources and services.